EW1979 Weather Reports


time (UTC)temp
F
wind
direction
speed
knots
gust
knots
rain 1hr
in
rain 24hr
in
rain mn
in
humidity
%
barometer
mb
20260509054513 69 140 0.0 0.0 0.00 0.00 0.00 5 1007.7
20260509053107 69 140 0.0 0.0 0.00 0.00 0.00 7 1008.1
20260509051507 69 140 0.0 0.0 0.00 0.00 0.00 9 1008.1
20260509050006 69 139 0.0 0.0 0.00 0.00 0.00 11 1008.7
20260509044603 69 138 0.0 0.0 0.00 0.00 0.00 13 1008.5
20260509043110 69 137 0.0 0.0 0.00 0.00 0.00 16 1008.2
20260509041505 68 136 0.0 0.0 0.00 0.00 0.00 18 1007.9
20260509040107 68 144 0.0 0.0 0.00 0.00 0.00 23 1007.6
20260509034507 68 147 0.0 0.0 0.00 0.00 0.00 28 1007.5
20260509033003 67 147 0.0 0.0 0.00 0.00 0.00 45 1007.3
20260509030017 68 147 0.0 0.0 0.00 0.00 0.00 49 1007.5
20260509024510 68 148 0.0 0.0 0.00 0.00 0.00 53 1007.3
20260509023105 68 148 0.0 0.0 0.00 0.00 0.00 60 1007.2
20260509021503 68 148 0.0 0.0 0.00 0.00 0.00 63 1007.2
20260509014603 69 148 0.0 0.0 0.00 0.00 0.00 72 1006.5
20260509013018 70 148 0.0 0.0 0.00 0.00 0.00 75 1006.2
20260509010133 72 148 0.0 0.0 0.00 0.00 0.00 78 1005.8
20260509004506 73 148 0.0 0.0 0.00 0.00 0.00 77 1005.8
20260509003103 73 148 0.0 0.0 0.00 0.00 0.00 77 1005.8
20260509001509 73 148 0.0 0.0 0.00 0.00 0.00 77 1005.8
20260508234602 73 147 0.0 0.0 0.00 0.00 0.00 77 1006.0
20260508233105 73 147 0.0 0.0 0.00 0.00 0.00 77 1006.0
20260508230017 74 138 0.0 0.0 0.00 0.00 0.00 76 1006.0
20260508224515 73 138 0.0 0.0 0.00 0.00 0.00 77 1006.0
20260508223022 73 138 0.0 0.0 0.00 0.00 0.00 77 1006.1
20260508220106 73 135 0.0 0.0 0.00 0.00 0.00 76 1006.2
20260508213002 73 134 0.0 0.0 0.00 0.00 0.00 77 1006.4
20260508211504 73 133 0.0 0.0 0.00 0.00 0.00 76 1006.6
20260508204603 74 118 0.0 0.0 0.00 0.00 0.00 76 1006.8
20260508194602 74 141 0.0 0.0 0.00 0.00 0.00 75 1007.0
20260508190012 74 122 0.0 0.0 0.00 0.00 0.00 75 1007.3
20260508184635 73 122 0.0 0.0 0.00 0.00 0.00 73 1007.5
20260508183118 73 122 0.0 0.0 0.00 0.00 0.00 72 1007.7
20260508181518 72 122 0.0 0.0 0.00 0.00 0.00 71 1008.1
20260508180106 72 119 0.0 0.0 0.00 0.00 0.00 69 1008.5
20260508174618 71 105 0.0 0.0 0.00 0.00 0.00 67 1008.7
20260508173003 70 86 0.0 0.0 0.00 0.00 0.00 57 1009.0
20260508171507 69 64 0.0 0.0 0.00 0.00 0.00 44 1009.2
20260508170104 68 16 0.0 0.0 0.00 0.00 0.00 18 1009.8
20260508164606 66 13 0.0 0.0 0.00 0.00 0.00 8 1010.0
20260508161604 64 11 0.0 0.0 0.00 0.00 0.00 12 1010.5
20260508160003 63 12 0.0 0.0 0.00 0.00 0.00 19 1010.9
20260508154504 62 11 0.0 0.0 0.00 0.00 0.00 20 1011.3
20260508153104 62 12 0.0 0.0 0.00 0.00 0.00 19 1011.5
20260508151603 62 19 0.0 0.0 0.00 0.00 0.00 20 1011.5
20260508150009 61 19 0.0 0.0 0.00 0.00 0.00 23 1011.4
20260508143002 60 19 0.0 0.0 0.00 0.00 0.00 32 1011.5
20260508141509 60 17 0.0 0.0 0.00 0.00 0.00 36 1011.7
20260508140007 59 17 0.0 0.0 0.00 0.00 0.00 40 1011.8
20260508134633 60 17 0.0 0.0 0.00 0.00 0.00 40 1011.5
20260508133113 60 17 0.0 0.0 0.00 0.00 0.00 39 1011.4
20260508131505 59 17 0.0 0.0 0.00 0.00 0.00 42 1011.5
20260508130002 59 17 0.0 0.0 0.00 0.00 0.00 42 1011.2
20260508124504 59 17 0.0 0.0 0.00 0.00 0.00 44 1011.0
20260508123010 59 17 0.0 0.0 0.00 0.00 0.00 46 1011.1
20260508121603 58 17 0.0 0.0 0.00 0.00 0.00 48 1011.5
20260508113002 59 17 0.0 0.0 0.00 0.00 0.00 61 1011.5
20260508111504 59 17 0.0 0.0 0.00 0.00 0.00 64 1011.7
20260508104603 59 17 0.0 0.0 0.00 0.00 0.00 69 1011.4
20260508103102 59 17 0.0 0.0 0.00 0.00 0.00 72 1011.1
20260508101503 59 17 0.0 0.0 0.00 0.00 0.00 75 1011.3
20260508100006 59 17 0.0 0.0 0.00 0.00 0.00 75 1011.1
20260508094615 59 17 0.0 0.0 0.00 0.00 0.00 75 1011.1
20260508093102 59 17 0.0 0.0 0.00 0.00 0.00 74 1011.0
20260508091632 59 17 0.0 0.0 0.00 0.00 0.00 75 1010.9
20260508090013 59 17 0.0 0.0 0.00 0.00 0.00 76 1011.3
20260508084508 59 15 0.0 0.0 0.00 0.00 0.00 77 1010.9
20260508083102 59 15 0.0 0.0 0.00 0.00 0.00 79 1011.1
20260508081508 60 15 0.0 0.0 0.00 0.00 0.00 80 1011.2
20260508080007 60 15 0.0 0.0 0.00 0.00 0.00 81 1011.5
20260508074601 60 15 0.0 0.0 0.00 0.00 0.00 81 1011.8
20260508073008 60 15 0.0 0.0 0.00 0.00 0.00 80 1011.8
20260508071603 60 15 0.0 0.0 0.00 0.00 0.00 81 1012.0
20260508064603 60 15 0.0 0.0 0.00 0.00 0.00 80 1012.5
20260508060105 60 14 0.0 0.0 0.00 0.00 0.00 80 1011.5